Flag for U.S.A. Weather past 2 weeks in Hollywood, California, U.S.A.

Now
49 °F

Clear.


Feels Like: 49 °F
Forecast: 44 / 61 °F
Wind: No wind

Location: Van Nuys Airport

Current Time: Dec 18, 2014 at 11:30:15 PM

Latest Report: Dec 18, 2014 at 10:51 PM


Visibility: 10 mi

Pressure: 30.21 "Hg

Humidity: 90%

Dew point: 46 °F

Location of HollywoodLocation

Historic Weather in Hollywood — Graph

°F

Hollywood temperature yesterday

Maximum temperature yesterday: 61 °F (at 1:51 PM)
Minimum temperature yesterday: 47 °F (at 11:51 PM)
Average temperature yesterday: 54 °F

Past Weeks' High & Low Weather Summary

 TemperatureHumidityPressure
High80 °F (Dec 9, 12:51 PM)93% (Dec 3, 10:51 PM)30.21 "Hg (Dec 3, 10:51 PM)
Low41 °F (Dec 14, 6:51 AM)21% (Dec 9, 11:51 AM)29.79 "Hg (Dec 12, 2:58 AM)
Average58 °F70%30.04 "Hg
* Reported Dec 3 9:51 PM — Dec 18 9:51 PM, Hollywood, Weather by CustomWeather, © 2014

Note: Actual official high and low records may vary slightly from our data, if they occured in-between our weather recording intervals... More about our weather records

Advertising

Hollywood weather history for previous 24 hours

 ConditionsComfort  
Time TempWeatherWind HumidityBarometerVisibility
9:51 PM
Dec 18
51 °FClear.No wind86%30.21 "Hg10 mi
8:51 PM52 °FClear.No wind83%30.19 "Hg10 mi
7:51 PM54 °FClear.No wind80%30.19 "Hg10 mi
6:51 PM56 °FClear.No wind70%30.18 "Hg10 mi
5:51 PM58 °FClear.5 mph65%30.16 "Hg10 mi
4:51 PM58 °FPassing clouds.5 mph65%30.14 "Hg10 mi
3:51 PM59 °FSunny.6 mph62%30.13 "Hg10 mi
2:51 PM61 °FOvercast.No wind54%30.12 "Hg10 mi
1:51 PM61 °FOvercast.No wind52%30.11 "Hg10 mi
12:51 PM60 °FOvercast.No wind58%30.13 "Hg10 mi
11:51 AM58 °FOvercast.No wind62%30.16 "Hg10 mi
10:51 AM57 °FMostly cloudy.5 mph62%30.19 "Hg10 mi
9:51 AM53 °FOvercast.3 mph72%30.20 "Hg10 mi
8:51 AM51 °FOvercast.No wind74%30.18 "Hg10 mi
7:51 AM48 °FPartly sunny.No wind80%30.16 "Hg10 mi
6:51 AM46 °FPassing clouds.5 mph86%30.15 "Hg10 mi
5:51 AM47 °FOvercast.No wind80%30.13 "Hg10 mi
4:51 AM44 °FClear.3 mph89%30.11 "Hg10 mi
3:51 AM45 °FPassing clouds.3 mph90%30.11 "Hg10 mi
2:51 AM47 °FMostly cloudy.No wind86%30.11 "Hg10 mi
1:51 AM47 °FPassing clouds.No wind86%30.11 "Hg10 mi
12:51 AM48 °FClear.No wind83%30.09 "Hg10 mi
11:51 PM
Dec 17
47 °FClear.No wind86%30.10 "Hg10 mi
Weather by CustomWeather, © 2014

See weather overviewHow to use our weather pages